Location: Llanfihangel-Ystrad
(52.1833°N, 4.1667°W)
Time: 23:11:53
(UTC+00:00)

BREEZE-M DEB (TANK) - Pass Details

Date: 17 February 2020
Orbit: 272 x 13110 km, 49.6° (Epoch: 05 April)

Event Time Altitude Azimuth Distance (km) Brightness Sun altitude
Exits shadow 05:43:19 28° 259° (WSW) 1,431 3.8 -16.8°
Maximum altitude 05:45:43 56° 193° (SSW) 1,280 4.0 -16.5°
Drops below altitude 10° 05:59:30 10° 121° (ESE) 6,462 8.7 -14.3°
Sets 06:08:46 0° 120° (ESE) 9,622 9.8 -12.9°
